Home   Weather   Libreville   Past weeks

Flag for Gabon Past Weather in Libreville, Gabon — Yesterday and Last 2 Weeks

Now
81 °F

Scattered clouds.


Feels Like: 85 °F
Forecast: 78 / 82 °F
Wind: 13 mph from Southeast

Location: Libreville Airport

Current Time: Sep 25, 2016 at 10:00:55 AM

Latest Report: Sep 25, 2016 at 9:00 AM


Visibility: N/A

Pressure: 29.95 "Hg

Humidity: 74%

Dew Point: 72 °F

Location of LibrevilleLocation

Past Weather in Libreville — Graph

°F

Libreville Temperature Yesterday

Maximum temperature yesterday: 86 °F (at 1:00 PM)
Minimum temperature yesterday: 77 °F (at 4:00 AM)
Average temperature yesterday: 80 °F

High & Low Weather Summary for the Past Weeks

 TemperatureHumidityPressure
High86 °F (Sep 17, 12:00 PM)100% (Sep 13, 7:00 AM)30.04 "Hg (Sep 13, 7:00 AM)
Low75 °F (Sep 12, 5:00 AM)62% (Sep 17, 12:00 PM)29.83 "Hg (Sep 20, 3:00 PM)
Average80 °F81%29.93 "Hg
* Reported Sep 10 9:00 AM — Sep 25 9:00 AM, Libreville, Weather by CustomWeather, © 2016

Note: Actual official high and low records may vary slightly from our data, if they occured in-between our weather recording intervals... More about our weather records

Advertising

Libreville Weather History for the Previous 24 Hours

Scroll right to see more
 ConditionsComfort  
Time TempWeatherWind HumidityBarometerVisibility
9:00 AM
Sun, Sep 25
81 °FScattered clouds.13 mph74%29.95 "HgN/A
8:00 AM79 °FBroken clouds.10 mph79%29.95 "HgN/A
7:00 AM77 °FScattered clouds.8 mph83%29.92 "HgN/A
6:00 AM77 °FPassing clouds.13 mph83%29.92 "HgN/A
5:00 AM77 °FPassing clouds.12 mph83%29.89 "HgN/A
4:00 AM77 °FPassing clouds.12 mph89%29.89 "HgN/A
3:00 AM77 °FPartly cloudy.9 mph89%29.89 "HgN/A
2:00 AM79 °FPassing clouds.8 mph84%29.89 "HgN/A
1:00 AM79 °FPassing clouds.8 mph84%29.92 "HgN/A
12:00 AM79 °FPassing clouds.7 mph84%29.92 "HgN/A
11:00 PM
Sat, Sep 24
79 °FPassing clouds.9 mph84%29.92 "HgN/A
10:00 PM79 °FPassing clouds.9 mph84%29.92 "HgN/A
9:00 PM79 °FPartly cloudy.9 mph84%29.92 "HgN/A
8:00 PM79 °FPartly cloudy.10 mph84%29.89 "HgN/A
7:00 PM81 °FPassing clouds.8 mph79%29.89 "HgN/A
6:00 PM81 °FScattered clouds.10 mph79%29.89 "HgN/A
5:00 PM82 °FScattered clouds.10 mph79%29.86 "HgN/A
4:00 PM82 °FPassing clouds.12 mph79%29.86 "HgN/A
3:00 PM82 °FScattered clouds.10 mph74%29.86 "HgN/A
2:00 PM84 °FPassing clouds.12 mph70%29.89 "HgN/A
1:00 PM86 °FPassing clouds.9 mph66%29.92 "HgN/A
12:00 PM84 °FScattered clouds.8 mph74%29.95 "HgN/A
11:00 AM84 °FScattered clouds.7 mph70%29.98 "HgN/A
10:00 AM84 °FPassing clouds.8 mph70%29.98 "HgN/A
Weather by CustomWeather, © 2016

See weather overviewHow to use our weather pages